Tracking 34403 objects as of 13-Jun-2026
HD Live streaming from Space Station
objects crossing your sky now

STARLINK-31823

Track STARLINK-31823 now!
10-day predictions
STARLINK-31823 is classified as:


NORAD ID: 59794
Int'l Code: 2024-093N
Perigee: 489.1 km
Apogee: 491.3 km
Inclination: 43.0 °
Period: 94.3 minutes
Semi major axis: 6861 km
RCS: Unknown
Launch date: May 18, 2024
Source: United States (US)
Launch site: AIR FORCE EASTERN TEST RANGE (AFETR)
Your satellite tracking list
Your tracking list is empty




NASA's NSSDC Master Catalog

Two Line Element Set (TLE):
1 59794U 24093N   26162.96182246  .00001217  00000-0  53757-4 0  9999
2 59794  43.0031  36.4504 0001590 274.1755  85.8915 15.27576700117112
Source of the keplerian elements: AFSPC